Location: Sebastopol
(38.4021°N, 122.8239°W)
Time: 15:21:41
(UTC+00:00)

Cosmos 2322 Rocket - Pass Details

Date: 29 October 2020
Orbit: 833 x 851 km, 71.0° (Epoch: 30 November)

Event Time Altitude Azimuth Distance (km) Brightness Sun altitude
Rises 13:22:45 0° 346° (NNW) 3,416 5.2 -14.7°
Reaches altitude 10° 13:25:29 10° 356° (N) 2,474 4.5 -14.2°
Maximum altitude 13:30:33 33° 59° (ENE) 1,398 3.9 -13.2°
Drops below altitude 10° 13:35:34 10° 122° (ESE) 2,451 5.7 -12.2°
Sets 13:38:14 0° 132° (SE) 3,378 6.3 -11.7°
